Time,TemperatureF,DewpointF,PressureIn,WindDirection,WindDirectionDegrees,WindSpeedMPH,WindSpeedGustMPH,Humidity,HourlyPrecipIn,Conditions,Clouds,dailyrainin,SolarRadiationWatts/m^2,SoftwareType,DateUTC
2012-10-02 00:24:00,84.0,30.0,-100.00,West,265,5.0,10.0,14,0.00,,,0.00,430.000000,,2012-10-02 00:24:00,
2012-10-02 00:33:00,84.0,30.0,-100.00,West,265,5.0,10.0,14,0.00,,,0.00,430.000000,,2012-10-02 00:33:00,
2012-10-02 01:24:00,81.0,29.0,-100.00,WSW,250,5.0,9.0,15,0.00,,,0.00,246.000000,,2012-10-02 01:24:00,
2012-10-02 01:34:00,81.0,29.0,-100.00,WSW,250,5.0,9.0,15,0.00,,,0.00,246.000000,,2012-10-02 01:34:00,
2012-10-02 02:24:00,74.0,30.0,-100.00,WSW,248,5.0,8.0,20,0.00,,,0.00,61.000000,,2012-10-02 02:24:00,
2012-10-02 02:34:00,74.0,30.0,-100.00,WSW,248,5.0,8.0,20,0.00,,,0.00,61.000000,,2012-10-02 02:34:00,
2012-10-02 03:24:00,69.0,33.0,-100.00,WNW,292,3.0,10.0,26,0.00,,,-99.99,1.000000,,2012-10-02 03:24:00,
2012-10-02 03:33:00,69.0,33.0,-100.00,WNW,292,3.0,10.0,26,0.00,,,-99.99,1.000000,,2012-10-02 03:33:00,
2012-10-02 03:43:00,69.0,33.0,-100.00,WNW,292,3.0,10.0,26,0.00,,,-99.99,1.000000,,2012-10-02 03:43:00,
2012-10-02 03:52:00,69.0,33.0,-100.00,WNW,292,3.0,10.0,26,0.00,,,-99.99,1.000000,,2012-10-02 03:52:00,
2012-10-02 04:13:00,65.0,34.0,-100.00,East,87,2.0,5.0,32,0.00,,,0.00,1.000000,,2012-10-02 04:13:00,
2012-10-02 04:24:00,65.0,34.0,-100.00,East,87,2.0,5.0,32,0.00,,,0.00,1.000000,,2012-10-02 04:24:00,
2012-10-02 04:34:00,65.0,34.0,-100.00,East,87,2.0,5.0,32,0.00,,,0.00,1.000000,,2012-10-02 04:34:00,
2012-10-02 04:44:00,65.0,34.0,-100.00,East,87,2.0,5.0,32,0.00,,,0.00,1.000000,,2012-10-02 04:44:00,
2012-10-02 04:52:00,65.0,34.0,-100.00,East,87,2.0,5.0,32,0.00,,,0.00,1.000000,,2012-10-02 04:52:00,
2012-10-02 05:24:00,63.0,31.0,-100.00,ESE,104,4.0,5.0,30,0.00,,,0.00,1.000000,,2012-10-02 05:24:00,
2012-10-02 05:34:00,63.0,31.0,-100.00,ESE,104,4.0,5.0,30,0.00,,,0.00,1.000000,,2012-10-02 05:34:00,
2012-10-02 05:43:00,63.0,31.0,-100.00,ESE,104,4.0,5.0,30,0.00,,,0.00,1.000000,,2012-10-02 05:43:00,
2012-10-02 05:53:00,63.0,31.0,-100.00,ESE,104,4.0,5.0,30,0.00,,,0.00,1.000000,,2012-10-02 05:53:00,
2012-10-02 06:23:00,59.0,33.0,-100.00,East,81,3.0,6.0,37,0.00,,,0.00,1.000000,,2012-10-02 06:23:00,
2012-10-02 06:34:00,59.0,33.0,-100.00,East,81,3.0,6.0,37,0.00,,,0.00,1.000000,,2012-10-02 06:34:00,
2012-10-02 06:43:00,59.0,33.0,-100.00,East,81,3.0,6.0,37,0.00,,,0.00,1.000000,,2012-10-02 06:43:00,
2012-10-02 06:53:00,59.0,33.0,-100.00,East,81,3.0,6.0,37,0.00,,,0.00,1.000000,,2012-10-02 06:53:00,
2012-10-02 07:24:00,56.0,33.0,-100.00,ENE,77,4.0,5.0,41,0.00,,,0.00,1.000000,,2012-10-02 07:24:00,
2012-10-02 07:34:00,56.0,33.0,-100.00,ENE,77,4.0,5.0,41,0.00,,,0.00,1.000000,,2012-10-02 07:34:00,
2012-10-02 07:44:00,56.0,33.0,-100.00,ENE,77,4.0,5.0,41,0.00,,,0.00,1.000000,,2012-10-02 07:44:00,
2012-10-02 07:53:00,56.0,33.0,-100.00,ENE,77,4.0,5.0,41,0.00,,,0.00,1.000000,,2012-10-02 07:53:00,
2012-10-02 08:13:00,56.0,34.0,-100.00,NE,45,4.0,6.0,44,0.00,,,0.00,1.000000,,2012-10-02 08:13:00,
2012-10-02 08:25:00,56.0,34.0,-100.00,NE,45,4.0,6.0,44,0.00,,,0.00,1.000000,,2012-10-02 08:25:00,
2012-10-02 08:34:00,56.0,34.0,-100.00,NE,45,4.0,6.0,44,0.00,,,0.00,1.000000,,2012-10-02 08:34:00,
2012-10-02 08:43:00,56.0,34.0,-100.00,NE,45,4.0,6.0,44,0.00,,,0.00,1.000000,,2012-10-02 08:43:00,
2012-10-02 08:53:00,56.0,34.0,-100.00,NE,45,4.0,6.0,44,0.00,,,0.00,1.000000,,2012-10-02 08:53:00,
2012-10-02 09:24:00,54.0,34.0,-100.00,ENE,75,4.0,5.0,47,0.00,,,-99.99,1.000000,,2012-10-02 09:24:00,
2012-10-02 09:33:00,54.0,34.0,-100.00,ENE,75,4.0,5.0,47,0.00,,,-99.99,1.000000,,2012-10-02 09:33:00,
2012-10-02 09:43:00,54.0,34.0,-100.00,ENE,75,4.0,5.0,47,0.00,,,-99.99,1.000000,,2012-10-02 09:43:00,
2012-10-02 09:52:00,54.0,34.0,-100.00,ENE,75,4.0,5.0,47,0.00,,,-99.99,1.000000,,2012-10-02 09:52:00,
2012-10-02 11:24:00,50.0,33.0,-100.00,ENE,65,5.0,7.0,52,-99.99,,,0.00,1.000000,,2012-10-02 11:24:00,
2012-10-02 11:33:00,50.0,33.0,-100.00,ENE,65,5.0,7.0,52,-99.99,,,0.00,1.000000,,2012-10-02 11:33:00,
2012-10-02 11:44:00,50.0,33.0,-100.00,ENE,65,5.0,7.0,52,-99.99,,,0.00,1.000000,,2012-10-02 11:44:00,
2012-10-02 11:53:00,50.0,33.0,-100.00,ENE,65,5.0,7.0,52,-99.99,,,0.00,1.000000,,2012-10-02 11:53:00,
2012-10-02 12:25:00,48.0,33.0,-100.00,ENE,62,6.0,8.0,56,0.00,,,0.00,1.000000,,2012-10-02 12:25:00,
2012-10-02 12:34:00,48.0,33.0,-100.00,ENE,62,6.0,8.0,56,0.00,,,0.00,1.000000,,2012-10-02 12:34:00,
2012-10-02 12:44:00,48.0,33.0,-100.00,ENE,62,6.0,8.0,56,0.00,,,0.00,1.000000,,2012-10-02 12:44:00,
2012-10-02 12:53:00,48.0,33.0,-100.00,ENE,62,6.0,8.0,56,0.00,,,0.00,1.000000,,2012-10-02 12:53:00,
2012-10-02 13:24:00,46.0,33.0,-100.00,ENE,64,6.0,9.0,60,0.00,,,0.00,1.000000,,2012-10-02 13:24:00,
2012-10-02 13:34:00,46.0,33.0,-100.00,ENE,64,6.0,9.0,60,0.00,,,0.00,1.000000,,2012-10-02 13:34:00,
2012-10-02 13:43:00,46.0,33.0,-100.00,ENE,64,6.0,9.0,60,0.00,,,0.00,1.000000,,2012-10-02 13:43:00,
2012-10-02 13:53:00,46.0,33.0,-100.00,ENE,64,6.0,9.0,60,0.00,,,0.00,1.000000,,2012-10-02 13:53:00,
2012-10-02 14:24:00,45.0,33.0,-100.00,NE,50,6.0,10.0,62,0.00,,,0.00,1.000000,,2012-10-02 14:24:00,
2012-10-02 14:34:00,45.0,33.0,-100.00,NE,50,6.0,10.0,62,0.00,,,0.00,1.000000,,2012-10-02 14:34:00,
2012-10-02 14:43:00,45.0,33.0,-100.00,NE,50,6.0,10.0,62,0.00,,,0.00,1.000000,,2012-10-02 14:43:00,
2012-10-02 14:53:00,45.0,33.0,-100.00,NE,50,6.0,10.0,62,0.00,,,0.00,1.000000,,2012-10-02 14:53:00,
2012-10-02 15:24:00,43.0,32.0,-100.00,ENE,66,8.0,12.0,65,0.00,,,0.00,12.000000,,2012-10-02 15:24:00,
2012-10-02 15:34:00,43.0,32.0,-100.00,ENE,66,8.0,12.0,65,0.00,,,0.00,12.000000,,2012-10-02 15:34:00,
2012-10-02 15:43:00,43.0,32.0,-100.00,ENE,66,8.0,12.0,65,0.00,,,0.00,12.000000,,2012-10-02 15:43:00,
2012-10-02 15:53:00,43.0,32.0,-100.00,ENE,66,8.0,12.0,65,0.00,,,0.00,12.000000,,2012-10-02 15:53:00,
2012-10-02 16:24:00,50.0,34.0,-100.00,ENE,61,7.0,12.0,54,0.00,,,0.00,177.000000,,2012-10-02 16:24:00,
2012-10-02 16:33:00,50.0,34.0,-100.00,ENE,61,7.0,12.0,54,0.00,,,0.00,177.000000,,2012-10-02 16:33:00,
2012-10-02 16:43:00,50.0,34.0,-100.00,ENE,61,7.0,12.0,54,0.00,,,0.00,177.000000,,2012-10-02 16:43:00,
2012-10-02 16:53:00,50.0,34.0,-100.00,ENE,61,7.0,12.0,54,0.00,,,0.00,177.000000,,2012-10-02 16:53:00,
2012-10-02 17:25:00,62.0,37.0,-100.00,NE,50,5.0,10.0,40,0.00,,,0.00,387.000000,,2012-10-02 17:25:00,
2012-10-02 17:34:00,62.0,37.0,-100.00,NE,50,5.0,10.0,40,0.00,,,0.00,387.000000,,2012-10-02 17:34:00,
2012-10-02 17:43:00,62.0,37.0,-100.00,NE,50,5.0,10.0,40,0.00,,,0.00,387.000000,,2012-10-02 17:43:00,
2012-10-02 17:53:00,62.0,37.0,-100.00,NE,50,5.0,10.0,40,0.00,,,0.00,387.000000,,2012-10-02 17:53:00,
2012-10-02 18:14:00,70.0,36.0,-100.00,South,190,4.0,8.0,29,0.00,,,0.00,552.000000,,2012-10-02 18:14:00,
2012-10-02 18:44:00,70.0,36.0,-100.00,South,190,4.0,8.0,29,0.00,,,0.00,552.000000,,2012-10-02 18:44:00,
2012-10-02 18:53:00,70.0,36.0,-100.00,South,190,4.0,8.0,29,0.00,,,0.00,552.000000,,2012-10-02 18:53:00,
2012-10-02 19:25:00,75.0,36.0,-100.00,WSW,239,4.0,7.0,24,0.00,,,0.00,666.000000,,2012-10-02 19:25:00,
2012-10-02 19:34:00,75.0,36.0,-100.00,WSW,239,4.0,7.0,24,0.00,,,0.00,666.000000,,2012-10-02 19:34:00,
2012-10-02 19:44:00,75.0,36.0,-100.00,WSW,239,4.0,7.0,24,0.00,,,0.00,666.000000,,2012-10-02 19:44:00,
2012-10-02 19:53:00,75.0,36.0,-100.00,WSW,239,4.0,7.0,24,0.00,,,0.00,666.000000,,2012-10-02 19:53:00,
2012-10-02 20:24:00,77.0,35.0,-100.00,WSW,258,5.0,11.0,22,0.00,,,0.00,736.000000,,2012-10-02 20:24:00,
2012-10-02 20:34:00,77.0,35.0,-100.00,WSW,258,5.0,11.0,22,0.00,,,0.00,736.000000,,2012-10-02 20:34:00,
2012-10-02 21:24:00,81.0,31.0,-100.00,West,268,6.0,10.0,16,0.00,,,0.00,744.000000,,2012-10-02 21:24:00,
2012-10-02 21:34:00,81.0,31.0,-100.00,West,268,6.0,10.0,16,0.00,,,0.00,744.000000,,2012-10-02 21:34:00,
2012-10-02 22:14:00,81.0,33.0,-100.00,West,275,6.0,14.0,18,0.00,,,0.00,689.000000,,2012-10-02 22:14:00,
2012-10-02 22:25:00,81.0,33.0,-100.00,West,275,6.0,14.0,18,0.00,,,0.00,689.000000,,2012-10-02 22:25:00,
2012-10-02 22:34:00,81.0,33.0,-100.00,West,275,6.0,14.0,18,0.00,,,0.00,689.000000,,2012-10-02 22:34:00,
2012-10-02 22:44:00,81.0,33.0,-100.00,West,275,6.0,14.0,18,0.00,,,0.00,689.000000,,2012-10-02 22:44:00,
2012-10-02 22:53:00,81.0,33.0,-100.00,West,275,6.0,14.0,18,0.00,,,0.00,689.000000,,2012-10-02 22:53:00,
2012-10-02 23:25:00,80.0,31.0,-100.00,West,280,10.0,16.0,17,0.00,,,-99.99,581.000000,,2012-10-02 23:25:00,
2012-10-02 23:34:00,80.0,31.0,-100.00,West,280,10.0,16.0,17,0.00,,,-99.99,581.000000,,2012-10-02 23:34:00,
2012-10-02 23:43:00,80.0,31.0,-100.00,West,280,10.0,16.0,17,0.00,,,-99.99,581.000000,,2012-10-02 23:43:00,
2012-10-02 23:53:00,80.0,31.0,-100.00,West,280,10.0,16.0,17,0.00,,,-99.99,581.000000,,2012-10-02 23:53:00,